Tracking 19717 objects as of 25-Jun-2019
HD Live streaming from Space Station
objects crossing your sky now

FENGYUN 1C DEB

Track FENGYUN 1C DEB now!
10-day predictions


NORAD ID: 31751
Int'l Code: 1999-025CFA
Perigee: 725.0 km
Apogee: 812.0 km
Inclination: 98.9 °
Period: 100.1 minutes
Semi major axis: 7139 km
RCS: 0.0135 m2 (small)
Launch date: May 10, 1999
Source: People's Republic of China (PRC)
Launch site: Taiyaun Space Center, China (TSC)

Note: This is SATELLITE DEBRIS
aabbcc
Your satellite tracking list
Your tracking list is empty




NASA's NSSDC Master Catalog

Two Line Element Set (TLE):
1 31751U 99025CFA 19175.56145005  .00001434  00000-0  46854-3 0  9993
2 31751  98.8689 287.4045 0060959 252.6303 106.8211 14.39135016631290
Source of the keplerian elements: AFSPC